[ hide orbit diagram ]
For accurate long-term ephemerides, please instead use our Horizons system.This orbit viewer was implemented using two-body methods, and hence should not be used for determining accurate long-term trajectories (over several years or decades) or planetary encounter circumstances.
Orbital Elements at Epoch 2459200.5 (2020-Dec-17.0) TDB
Reference: JPL 35 (heliocentric ecliptic J2000)
Element | Value | Uncertainty (1-sigma) | Units |
e | .269413131056427 | 3.0092e-08 | |
a | 2.74538985079221 | 9.9571e-09 | au |
q | 2.005745775119744 | 8.6385e-08 | au |
i | 9.583412970027293 | 1.0273e-06 | deg |
node | 180.8155607901796 | 2.6563e-06 | deg |
peri | 141.1449240308689 | 4.066e-06 | deg |
M | 345.7598404916643 | 2.655e-06 | deg |
tp | 2459266.222914766766 (2021-Feb-20.72291477) | 1.248e-05 | TDB |
period | 1661.515750731985 4.55 | 9.0391e-06 2.475e-08 | d yr |
n | .2166696282243494 | 1.1787e-09 | deg/d |
Q | 3.485033926464677 | 1.264e-08 | au |
|
| | Orbit Determination Parameters
Additional Information
|
[ hide covariance matrix ]
Orbital Elements at Epoch 2457125.5 (2015-Apr-13.0) TDB
Reference: JPL 35 (heliocentric ecliptic J2000)
Element | Value | Uncertainty (1-sigma) | Units |
e | .2680540437432908 | 3.0166e-08 | |
q | 2.009341772253538 | 8.6506e-08 | au |
tp | 2457606.246953336019 (2016-Aug-05.74695334) | 9.7002e-06 | TDB |
node | 180.8504503632022 | 2.6565e-06 | deg |
peri | 141.2790606287541 | 4.0667e-06 | deg |
i | 9.580973956665716 | 1.027e-06 | deg |
|
| | Orbit Determination Parameters
Additional Information
|
Orbit Covariance (6×6)
|
|
e |
q |
tp |
node |
peri |
i |
e |
9.099716526793027E-16 |
-2.602358182165095E-15 |
5.091754519284507E-14 |
7.10766573975467E-15 |
8.294025737305923E-14 |
3.153020446181003E-15 |
q |
-2.602358182165095E-15 |
7.483266804989926E-15 |
-1.477005514601244E-13 |
-2.015813739705793E-14 |
-2.400738519234448E-13 |
-9.156730583181786E-15 |
tp |
5.091754519284507E-14 |
-1.477005514601244E-13 |
9.409438271103617E-11 |
4.133039041389281E-12 |
1.974455201724272E-11 |
-2.706511426048226E-12 |
node |
7.10766573975467E-15 |
-2.015813739705793E-14 |
4.133039041389281E-12 |
7.057236967153083E-12 |
-5.054695955489513E-12 |
-2.777289383690204E-13 |
peri |
8.294025737305923E-14 |
-2.400738519234448E-13 |
1.974455201724272E-11 |
-5.054695955489513E-12 |
1.653789538080494E-11 |
5.156840272870305E-14 |
i |
3.153020446181003E-15 |
-9.156730583181786E-15 |
-2.706511426048226E-12 |
-2.777289383690204E-13 |
5.156840272870305E-14 |
1.054806118003278E-12 |
|
Physical Parameter Table
Parameter |
Symbol |
Value |
Units |
Sigma |
Reference |
Notes |
absolute magnitude |
H |
13.61 |
|
n/a |
E2021B10 |
|
rotation period |
rot_per |
6.0275 |
h |
n/a |
LCDB (Rev. 2020-October); Warner et al., 2009 |
Published Reference List: [Behrend, R. (2016) Observatoire de Geneve web site, http://obswww.unige.ch/~behrend/page_cou.html] |
|
14125 (1998 QT62) Discovered 1998-Aug-27 by Beijing Schmidt CCD Asteroid Program at Xinglong |
Reference: 20000320/Numbers.arc | Last Updated: 2004-04-19 |
|
[ show close-approach data ]
|